Weather History for Millville, NJ

Change the Weather History Date:

Sunday, January 26, 2014

  Actual Average Record
Temperature  
Mean Temperature 24 °F -  
Max Temperature 35 °F 42 °F 74 °F (1950)
Min Temperature 15 °F 25 °F -3 °F (1961)
Degree Days  
Heating Degree Days 40    
Moisture  
Dew Point 11 °F    
Average Humidity 54    
Maximum Humidity 70    
Minimum Humidity 39    
Precipitation  
Precipitation 0.00 in - - ()
Sea Level Pressure  
Sea Level Pressure 29.84 in    
Wind  
Wind Speed 11 mph (West)    
Max Wind Speed 20 mph    
Max Gust Speed 32 mph    
Visibility 10 miles    
Events      
Averages and records for this station are not official NWS values.
T = Trace of Precipitation, MM = Missing Value Source: NWS Daily Summary

Daily Weather History Graph

Daily Weather History Graph

Search for Another Location

Airport:

Trip Planner

Search our weather history database for the weather conditions in past years. The results will help you decide how hot, cold, wet, or windy it might be!

Date:

Astronomy

Jan. 26, 2014 Rise Set
Actual Time 7:12 AM EST 5:13 PM EST
Civil Twilight 6:43 AM EST 5:42 PM EST
Nautical Twilight 6:11 AM EST 6:14 PM EST
Astronomical Twilight 5:39 AM EST 6:46 PM EST
Moon 2:47 AM EST 1:01 PM EST
Length of Visible Light 10h 58m
Length of Day
10h 01m
Waning Crescent, 24% of the Moon is Illuminated
Jan 26
Waning Crescent
Jan 30
New
Feb 6
First Quarter
Feb 14
Full
Feb 22
Last Quarter

Hourly Weather History & Observations

Time (EST) Temp. Windchill Dew Point Humidity Pressure Visibility Wind Dir Wind Speed Gust Speed Precip Events Conditions
12:54 AM 28.0 °F 16.5 °F 18.0 °F 66% 29.60 in 10.0 mi West 15.0 mph - N/A   Clear
1:54 AM 27.0 °F 13.5 °F 17.1 °F 66% 29.67 in 10.0 mi WNW 19.6 mph 32.2 mph 0.00 in   Overcast
2:54 AM 25.0 °F 13.6 °F 10.9 °F 55% 29.73 in 10.0 mi WNW 12.7 mph - 0.00 in   Partly Cloudy
3:54 AM 21.9 °F 8.7 °F 7.0 °F 53% 29.76 in 10.0 mi WNW 15.0 mph - N/A   Clear
4:54 AM 21.0 °F 8.1 °F 6.1 °F 53% 29.81 in 10.0 mi WNW 13.8 mph - N/A   Clear
5:54 AM 19.0 °F 7.5 °F 3.9 °F 52% 29.85 in 10.0 mi WNW 10.4 mph - N/A   Clear
6:54 AM 15.1 °F 6.4 °F 3.0 °F 59% 29.91 in 10.0 mi West 5.8 mph - N/A   Clear
7:54 AM 18.0 °F 6.9 °F 1.9 °F 50% 29.92 in 10.0 mi WNW 9.2 mph - N/A   Clear
8:54 AM 19.9 °F 8.6 °F 3.0 °F 48% 29.95 in 10.0 mi WNW 10.4 mph - N/A   Clear
9:54 AM 23.0 °F 11.7 °F 3.9 °F 44% 29.96 in 10.0 mi WNW 11.5 mph 18.4 mph N/A   Clear
10:54 AM 24.1 °F 13.1 °F 3.9 °F 42% 29.94 in 10.0 mi NNW 11.5 mph - N/A   Clear
11:54 AM 26.1 °F 17.6 °F 5.0 °F 41% 29.91 in 10.0 mi NW 8.1 mph - N/A   Clear
12:54 PM 26.1 °F 18.4 °F 3.9 °F 39% 29.89 in 10.0 mi West 6.9 mph 17.3 mph N/A   Clear
1:54 PM 27.0 °F 19.5 °F 6.1 °F 41% 29.89 in 10.0 mi Variable 6.9 mph - N/A   Partly Cloudy
2:54 PM 27.0 °F 21.6 °F 7.0 °F 43% 29.90 in 10.0 mi West 4.6 mph - N/A   Overcast
3:54 PM 26.1 °F 16.2 °F 9.0 °F 49% 29.87 in 10.0 mi SSE 10.4 mph - N/A   Overcast
4:54 PM 26.1 °F 19.4 °F 12.0 °F 55% 29.86 in 10.0 mi SSE 5.8 mph - N/A   Scattered Clouds
5:54 PM 27.0 °F 20.5 °F 15.1 °F 61% 29.87 in 10.0 mi ESE 5.8 mph - N/A   Overcast
6:54 PM 28.0 °F 24.2 °F 17.1 °F 63% 29.86 in 10.0 mi South 3.5 mph - N/A   Overcast
7:54 PM 32.0 °F 25.6 °F 17.1 °F 54% 29.83 in 10.0 mi Variable 6.9 mph - N/A   Overcast
8:54 PM 33.1 °F 28.7 °F 21.0 °F 61% 29.83 in 10.0 mi Variable 4.6 mph - N/A   Overcast
9:54 PM 33.1 °F - 23.0 °F 66% 29.82 in 10.0 mi Calm Calm - N/A   Clear
10:54 PM 34.0 °F 31.0 °F 25.0 °F 70% 29.81 in 10.0 mi Variable 3.5 mph - N/A   Scattered Clouds
11:54 PM 35.1 °F 30.1 °F 26.1 °F 70% 29.78 in 10.0 mi Variable 5.8 mph - N/A   Clear